Regional Weather Roundup
Issued by NWS

Home | Current Version | Previous Version | Text Only | Print | Product List | Glossary On
Versions: 1 2 3 4 5 6 7 8 9 10 11 12 13 14 15 16 17 18 19 20 21 22 23 24 25 26 27 28 29 30 31 32 33 34 35 36 37 38 39 40 41 42 43 44 45 46 47 48 49 50
000
ASUS42 KKEY 200910
RWRKEY

FLORIDA KEYS REGIONAL WEATHER ROUNDUP
NATIONAL WEATHER SERVICE KEY WEST FLORIDA
500 AM EDT SAT JUL 20 2019

...SOUTH FLORIDA AND THE KEYS...

CITY           SKY/WX    TMP DP  RH WIND       PRES   REMARKS
FORT MYERS     FAIR      74  72  93 CALM      30.02S
SW REGIONAL AP FAIR      75  72  90 NE3       30.03S
NAPLES         NOT AVBL
MIAMI          MOCLDY    84  73  69 E10       30.03R THUNDER HX  90
WEST KENDALL     N/A    N/A N/A N/A MISG      30.02R
HOMESTEAD      FAIR      82  75  80 E6        30.01R
MARATHON       FAIR      84  75  74 E5        30.01R HX  92
BOCA CHICA NAS FAIR      84  75  74 E8        30.01R HX  92
KEY WEST INTL  FAIR      84  75  74 E8        30.01S HX  92

...INTERNATIONAL WEATHER...

CITY           SKY/WX    TMP DP  RH WIND       PRES   REMARKS
NASSAU         PTCLDY    73  72  94 SE18      30.05S
HAVANA           N/A     73  73 100 E2        30.00S
VARADERO       PTCLDY    75  73  94 S3        30.00S
CANCUN         PTCLDY    81  77  89 E5        29.97S
COZUMEL        PTCLDY    77  75  94 E3        29.95F
KINGSTON       PTCLDY    84  68  58 E16       29.92S

...ADJACENT COASTAL WATERS...

STATION/POSITION TIME  SKY/WX   TEMP    WIND        PRES    WAVE
                                AIR SEA DIR/SP/G            HT/PER
                 (UTC)          (F)     (DEG/KT/KT) (MB)    (FT/S)
PULASKI SHOAL LI 0845            84     130/ 12/ 13 1016.1F
SAND KEY         0850            85     120/ 11     1014.9R
SOMBRERO KEY     0850            84     110/  8/ 11 1016.3R
LONG KEY         0850            85                 1015.3S
MOLASSES REEF    NOT AVBL
FOWEY ROCKS      0900            84 85  120/ 13/ 14 1016.7R
Buoy 42097       0830               85                N/A     2/ 3

$$



USA.gov is the U.S. government's official web portal to all federal, state and local government web resources and services.